Terminal Aerodrome Forecast
Issued by NWS Bismarck, ND

Home | Current Version | Previous Version | Graphics & Text | Print | Product List | Glossary On
Versions: 1 2 3 4 5 6 7 8 9 10 11 12 13 14 15 16 17 18
000
FTUS43 KBIS 250500
TAFISN
TAF
KISN 250534Z 2506/2606 32016G23KT P6SM SCT025 OVC045
      TEMPO 2506/2510 BKN025 OVC035
     FM251000 32015KT P6SM OVC025
     FM251400 32013G18KT P6SM SCT020 BKN035
     FM251700 31011KT P6SM SCT045
     FM252000 31010KT P6SM BKN045
     FM260200 VRB03KT P6SM SCT035 BKN180=

USA.gov is the U.S. government's official web portal to all federal, state and local government web resources and services.